JAL2000 RJCC-RJOO

Flight info

Callsign JAL2000
Flight time 1h 37m
Altitude 36000
Route DALBI Y120 TAPPI Y12 ARIKA Y14 GOLDO Y381 KMC Y384 ROKKO KAMEO OTABE ABENO IKOMA
Aircraft B763/H-SDE3FGHIM3RWXY/LB1

Departure

Time 2026-05-05 18:29
Airport New Chitose Airport (RJCC)

Arrival

Time 2026-05-05 20:07
Airport Osaka Itami International Airport (RJOO)
Time Latitude Longitude Altitude Speed Heading
2026-05-05 18:14 42.78478 141.68051 85 ft 0 kts 340°
2026-05-05 18:23 42.78478 141.68052 85 ft 1 kts 340°
2026-05-05 18:23 42.78456 141.68062 85 ft 4 kts 340°
2026-05-05 18:23 42.78431 141.68075 85 ft 4 kts 340°
2026-05-05 18:23 42.78405 141.68088 85 ft 4 kts 340°
2026-05-05 18:24 42.78393 141.68093 85 ft 16 kts 340°
2026-05-05 18:26 42.78408 141.68093 85 ft 6 kts
2026-05-05 18:26 42.78474 141.68146 85 ft 16 kts 39°
2026-05-05 18:27 42.78579 141.68262 85 ft 22 kts 31°
2026-05-05 18:27 42.78727 141.68347 85 ft 24 kts 32°
2026-05-05 18:27 42.78795 141.68512 85 ft 14 kts 81°
2026-05-05 18:27 42.78805 141.68597 85 ft 8 kts 81°
2026-05-05 18:28 42.78814 141.68695 85 ft 5 kts 83°
2026-05-05 18:28 42.78812 141.68771 85 ft 11 kts 111°
2026-05-05 18:28 42.78728 141.68831 85 ft 18 kts 169°
2026-05-05 18:29 42.78413 141.68899 85 ft 93 kts 173°
2026-05-05 18:29 42.77432 141.69071 142 ft 183 kts 171°
2026-05-05 18:29 42.76131 141.69296 1395 ft 191 kts 172°
2026-05-05 18:29 42.74767 141.69522 2342 ft 202 kts 170°
2026-05-05 18:30 42.73383 141.69804 3522 ft 195 kts 171°
2026-05-05 18:30 42.72012 141.70104 4494 ft 207 kts 175°
2026-05-05 18:30 42.70556 141.70402 5172 ft 214 kts 179°
2026-05-05 18:30 42.69049 141.70707 5868 ft 224 kts 182°
2026-05-05 18:31 42.67458 141.71024 6564 ft 239 kts 182°
2026-05-05 18:31 42.65791 141.71358 7271 ft 250 kts 182°
2026-05-05 18:31 42.64031 141.71721 7986 ft 263 kts 181°
2026-05-05 18:31 42.62170 141.71996 8680 ft 270 kts 191°
2026-05-05 18:32 42.60388 141.71360 9398 ft 264 kts 215°
2026-05-05 18:32 42.59034 141.69759 10111 ft 255 kts 239°
2026-05-05 18:32 42.58372 141.67529 10714 ft 264 kts 262°
2026-05-05 18:32 42.58385 141.65852 11189 ft 274 kts 277°
2026-05-05 18:33 42.58896 141.63307 12022 ft 286 kts 285°
2026-05-05 18:33 42.59562 141.60689 12724 ft 300 kts 286°
2026-05-05 18:33 42.60228 141.57931 13399 ft 313 kts 282°
2026-05-05 18:33 42.60430 141.54940 13970 ft 326 kts 267°
2026-05-05 18:34 42.60108 141.51836 14574 ft 340 kts 259°
2026-05-05 18:34 42.59464 141.48704 15338 ft 348 kts 253°
2026-05-05 18:34 42.58649 141.45590 16174 ft 353 kts 252°
2026-05-05 18:34 42.57787 141.42442 17000 ft 358 kts 252°
2026-05-05 18:35 42.56908 141.39266 17829 ft 362 kts 252°
2026-05-05 18:35 42.56014 141.36042 18626 ft 367 kts 252°
2026-05-05 18:35 42.55107 141.32778 19407 ft 371 kts 252°
2026-05-05 18:35 42.54188 141.29475 20181 ft 375 kts 251°
2026-05-05 18:36 42.53270 141.26178 20912 ft 380 kts 251°
2026-05-05 18:36 42.52331 141.22811 21633 ft 384 kts 251°
2026-05-05 18:36 42.51382 141.19414 22331 ft 388 kts 251°
2026-05-05 18:36 42.50420 141.15976 23004 ft 392 kts 251°
2026-05-05 18:37 42.49448 141.12506 23663 ft 396 kts 251°
2026-05-05 18:37 42.48462 141.08995 24287 ft 400 kts 251°
2026-05-05 18:37 42.47470 141.05464 24890 ft 404 kts 251°
2026-05-05 18:37 42.46464 141.01889 25477 ft 407 kts 251°
2026-05-05 18:38 42.45451 140.98295 26030 ft 411 kts 251°
2026-05-05 18:38 42.44423 140.94652 26580 ft 415 kts 251°
2026-05-05 18:38 42.43386 140.90984 27122 ft 419 kts 251°
2026-05-05 18:38 42.42339 140.87287 27651 ft 422 kts 251°
2026-05-05 18:39 42.41281 140.83557 28142 ft 426 kts 251°
2026-05-05 18:39 42.40216 140.79806 28621 ft 429 kts 251°
2026-05-05 18:39 42.39141 140.76029 29260 ft 428 kts 250°
2026-05-05 18:39 42.38072 140.72282 29929 ft 426 kts 250°
2026-05-05 18:40 42.36946 140.68587 30550 ft 425 kts 244°
2026-05-05 18:40 42.35269 140.65305 31276 ft 424 kts 233°
2026-05-05 18:40 42.33258 140.62437 31858 ft 427 kts 225°
2026-05-05 18:40 42.30799 140.60150 32525 ft 430 kts 213°
2026-05-05 18:41 42.28027 140.58564 33106 ft 434 kts 204°
2026-05-05 18:41 42.25109 140.57438 33572 ft 438 kts 199°
2026-05-05 18:41 42.22131 140.56487 33960 ft 440 kts 199°
2026-05-05 18:41 42.19155 140.55541 34354 ft 441 kts 199°
2026-05-05 18:42 42.16180 140.54527 34767 ft 440 kts 200°
2026-05-05 18:42 42.13260 140.53466 35185 ft 439 kts 201°
2026-05-05 18:42 42.10322 140.52358 35615 ft 438 kts 201°
2026-05-05 18:42 42.07391 140.51240 35957 ft 438 kts 201°
2026-05-05 18:43 42.01537 140.49022 36071 ft 435 kts 201°
2026-05-05 18:43 41.95720 140.46844 36078 ft 433 kts 201°
2026-05-05 18:44 41.89904 140.44674 36079 ft 433 kts 201°
2026-05-05 18:44 41.84080 140.42505 36079 ft 434 kts 201°
2026-05-05 18:45 41.78264 140.40341 36080 ft 434 kts 201°
2026-05-05 18:45 41.72471 140.38191 36081 ft 434 kts 201°
2026-05-05 18:46 41.66643 140.36031 36083 ft 434 kts 201°
2026-05-05 18:46 41.60826 140.33880 36083 ft 433 kts 201°
2026-05-05 18:47 41.55046 140.31746 36084 ft 433 kts 201°
2026-05-05 18:47 41.49228 140.29601 36084 ft 433 kts 201°
2026-05-05 18:48 41.43417 140.27464 36085 ft 433 kts 201°
2026-05-05 18:48 41.37604 140.25329 36085 ft 433 kts 201°
2026-05-05 18:49 41.34674 140.24563 36059 ft 437 kts 189°
2026-05-05 18:49 41.31614 140.24906 36076 ft 447 kts 172°
2026-05-05 18:49 41.28685 140.26427 36085 ft 460 kts 156°
2026-05-05 18:49 41.26104 140.29043 36086 ft 474 kts 140°
2026-05-05 18:50 41.24095 140.32571 36088 ft 486 kts 123°
2026-05-05 18:50 41.22821 140.36770 36088 ft 497 kts 107°
2026-05-05 18:50 41.22391 140.41360 36089 ft 504 kts 90°
2026-05-05 18:50 41.22845 140.45935 36090 ft 509 kts 74°
2026-05-05 18:51 41.23934 140.55203 36079 ft 510 kts 97°
2026-05-05 18:51 41.23225 140.59795 36086 ft 507 kts 112°
2026-05-05 18:51 41.21697 140.63933 36088 ft 501 kts 129°
2026-05-05 18:52 41.19442 140.67397 36088 ft 491 kts 144°
2026-05-05 18:52 41.16649 140.69910 36088 ft 479 kts 160°
2026-05-05 18:52 41.13548 140.71308 36088 ft 465 kts 176°
2026-05-05 18:52 41.10374 140.71525 36088 ft 450 kts 192°
2026-05-05 18:53 41.07388 140.70585 36087 ft 436 kts 208°
2026-05-05 18:53 41.04738 140.68750 36099 ft 425 kts 217°
2026-05-05 18:53 40.99910 140.64386 36083 ft 417 kts 220°
2026-05-05 18:54 40.95238 140.59914 36083 ft 417 kts 220°
2026-05-05 18:54 40.90531 140.55391 36083 ft 417 kts 220°
2026-05-05 18:55 40.85833 140.50882 36083 ft 416 kts 220°
2026-05-05 18:55 40.81169 140.46415 36083 ft 417 kts 220°
2026-05-05 18:56 40.76473 140.41923 36084 ft 416 kts 220°
2026-05-05 18:56 40.71776 140.37440 36084 ft 416 kts 220°
2026-05-05 18:57 40.67087 140.32971 36087 ft 416 kts 220°
2026-05-05 18:57 40.62414 140.28526 36090 ft 416 kts 220°
2026-05-05 18:58 40.57718 140.24067 36093 ft 416 kts 220°
2026-05-05 18:58 40.53024 140.19618 36097 ft 416 kts 220°
2026-05-05 18:59 40.48321 140.15167 36099 ft 415 kts 220°
2026-05-05 18:59 40.43634 140.10739 36103 ft 415 kts 220°
2026-05-05 19:00 40.38941 140.06314 36109 ft 415 kts 220°
2026-05-05 19:00 40.34244 140.01893 36114 ft 415 kts 220°
2026-05-05 19:01 40.29546 139.97477 36120 ft 415 kts 220°
2026-05-05 19:01 40.24885 139.93105 36126 ft 415 kts 220°
2026-05-05 19:02 40.20192 139.88711 36131 ft 415 kts 220°
2026-05-05 19:02 40.15494 139.84319 36136 ft 415 kts 220°
2026-05-05 19:03 40.10797 139.79935 36140 ft 415 kts 220°
2026-05-05 19:03 40.06096 139.75555 36144 ft 415 kts 220°
2026-05-05 19:04 40.01397 139.71185 36147 ft 415 kts 220°
2026-05-05 19:04 39.96688 139.66814 36150 ft 415 kts 220°
2026-05-05 19:05 39.91995 139.62465 36152 ft 413 kts 220°
2026-05-05 19:05 39.87312 139.58133 36152 ft 413 kts 220°
2026-05-05 19:06 39.82627 139.53805 36153 ft 413 kts 220°
2026-05-05 19:06 39.77968 139.49509 36154 ft 412 kts 220°
2026-05-05 19:07 39.73285 139.45199 36154 ft 412 kts 220°
2026-05-05 19:07 39.68611 139.40903 36155 ft 412 kts 220°
2026-05-05 19:08 39.63942 139.36620 36155 ft 411 kts 220°
2026-05-05 19:08 39.59281 139.32351 36160 ft 409 kts 220°
2026-05-05 19:09 39.54624 139.28093 36166 ft 409 kts 220°
2026-05-05 19:09 39.49973 139.23847 36167 ft 409 kts 220°
2026-05-05 19:10 39.45349 139.19634 36167 ft 408 kts 220°
2026-05-05 19:10 39.40708 139.15410 36168 ft 407 kts 220°
2026-05-05 19:11 39.36072 139.11199 36170 ft 407 kts 220°
2026-05-05 19:11 39.31445 139.07003 36166 ft 406 kts 220°
2026-05-05 19:12 39.26843 139.02837 36165 ft 406 kts 220°
2026-05-05 19:12 39.22217 138.98654 36165 ft 405 kts 220°
2026-05-05 19:13 39.17595 138.94483 36165 ft 405 kts 220°
2026-05-05 19:13 39.12978 138.90323 36165 ft 404 kts 220°
2026-05-05 19:14 39.08406 138.86210 36166 ft 403 kts 220°
2026-05-05 19:14 39.03808 138.82080 36165 ft 402 kts 220°
2026-05-05 19:15 38.99210 138.77957 36165 ft 402 kts 220°
2026-05-05 19:15 38.94642 138.73867 36166 ft 401 kts 220°
2026-05-05 19:16 38.90056 138.69768 36165 ft 401 kts 220°
2026-05-05 19:16 38.86243 138.66364 36165 ft 400 kts 220°
2026-05-05 19:17 38.80924 138.61624 36166 ft 400 kts 220°
2026-05-05 19:17 38.76351 138.57556 36166 ft 399 kts 220°
2026-05-05 19:18 38.72558 138.54186 36166 ft 398 kts 220°
2026-05-05 19:18 38.68006 138.50148 36166 ft 397 kts 220°
2026-05-05 19:19 38.63458 138.46119 36166 ft 397 kts 220°
2026-05-05 19:19 38.58939 138.42123 36166 ft 396 kts 220°
2026-05-05 19:20 38.54409 138.38123 36166 ft 395 kts 220°
2026-05-05 19:20 38.49896 138.34144 36166 ft 394 kts 220°
2026-05-05 19:21 38.45411 138.30195 36166 ft 394 kts 220°
2026-05-05 19:21 38.40873 138.26206 36167 ft 393 kts 220°
2026-05-05 19:22 38.36398 138.22277 36166 ft 392 kts 220°
2026-05-05 19:22 38.31898 138.18334 36166 ft 391 kts 220°
2026-05-05 19:23 38.29647 138.16362 35970 ft 400 kts 222°
2026-05-05 19:23 38.27356 138.14333 36046 ft 407 kts 215°
2026-05-05 19:23 38.24998 138.12246 36065 ft 418 kts 214°
2026-05-05 19:23 38.22570 138.10116 36033 ft 429 kts 214°
2026-05-05 19:24 38.17521 138.05708 36013 ft 450 kts 214°
2026-05-05 19:24 38.12273 138.01137 36005 ft 460 kts 214°
2026-05-05 19:25 38.07016 137.96568 36000 ft 460 kts 214°
2026-05-05 19:25 38.01735 137.91986 35999 ft 459 kts 214°
2026-05-05 19:26 37.96453 137.87410 35999 ft 459 kts 214°
2026-05-05 19:26 37.91169 137.82841 35999 ft 459 kts 214°
2026-05-05 19:27 37.85902 137.78294 35999 ft 459 kts 214°
2026-05-05 19:27 37.80613 137.73736 35999 ft 459 kts 214°
2026-05-05 19:28 37.75322 137.69184 35999 ft 459 kts 214°
2026-05-05 19:28 37.70027 137.64637 35999 ft 459 kts 214°
2026-05-05 19:29 37.64770 137.60130 35999 ft 459 kts 214°
2026-05-05 19:29 37.59472 137.55595 35999 ft 459 kts 214°
2026-05-05 19:30 37.54175 137.51068 35999 ft 459 kts 214°
2026-05-05 19:30 37.48875 137.46547 35999 ft 459 kts 214°
2026-05-05 19:31 37.43614 137.42066 35999 ft 459 kts 214°
2026-05-05 19:31 37.38315 137.37560 35999 ft 459 kts 214°
2026-05-05 19:32 37.33012 137.33059 35999 ft 459 kts 214°
2026-05-05 19:32 37.27703 137.28560 35999 ft 459 kts 214°
2026-05-05 19:33 37.22401 137.24073 35998 ft 459 kts 214°
2026-05-05 19:33 37.17131 137.19621 35998 ft 459 kts 214°
2026-05-05 19:34 37.11821 137.15142 35999 ft 459 kts 214°
2026-05-05 19:35 37.03866 137.08445 35999 ft 459 kts 214°
2026-05-05 19:35 36.98557 137.03984 35999 ft 459 kts 214°
2026-05-05 19:36 36.93249 136.99530 35999 ft 459 kts 214°
2026-05-05 19:36 36.87940 136.95079 35999 ft 459 kts 214°
2026-05-05 19:37 36.82612 136.90675 35994 ft 459 kts 211°
2026-05-05 19:37 36.76937 136.87003 35999 ft 459 kts 205°
2026-05-05 19:38 36.71146 136.83609 35998 ft 459 kts 205°
2026-05-05 19:38 36.65385 136.80281 35998 ft 459 kts 205°
2026-05-05 19:39 36.59576 136.76936 35999 ft 459 kts 205°
2026-05-05 19:39 36.53756 136.73591 35999 ft 459 kts 205°
2026-05-05 19:40 36.47991 136.70283 35999 ft 459 kts 205°
2026-05-05 19:40 36.42176 136.66952 35999 ft 459 kts 205°
2026-05-05 19:41 36.36369 136.63631 35999 ft 459 kts 205°
2026-05-05 19:41 36.30555 136.60311 35998 ft 459 kts 205°
2026-05-05 19:42 36.24745 136.56999 35998 ft 459 kts 205°
2026-05-05 19:42 36.21840 136.55345 35855 ft 461 kts 205°
2026-05-05 19:42 36.18915 136.53680 35109 ft 464 kts 205°
2026-05-05 19:42 36.16002 136.52024 34368 ft 466 kts 205°
2026-05-05 19:43 36.13053 136.50349 33660 ft 466 kts 205°
2026-05-05 19:43 36.10096 136.48671 32991 ft 466 kts 205°
2026-05-05 19:43 36.07138 136.46993 32371 ft 467 kts 205°
2026-05-05 19:43 36.04177 136.45315 31743 ft 468 kts 205°
2026-05-05 19:44 36.01243 136.43654 31118 ft 470 kts 205°
2026-05-05 19:44 35.98262 136.41968 30485 ft 471 kts 205°
2026-05-05 19:44 35.95275 136.40279 29850 ft 472 kts 205°
2026-05-05 19:44 35.92287 136.38592 29214 ft 473 kts 205°
2026-05-05 19:45 35.89300 136.36906 28577 ft 470 kts 204°
2026-05-05 19:45 35.86330 136.35231 27945 ft 466 kts 204°
2026-05-05 19:45 35.83395 136.33577 27322 ft 461 kts 204°
2026-05-05 19:45 35.80490 136.31942 26704 ft 457 kts 204°
2026-05-05 19:46 35.77611 136.30322 26092 ft 452 kts 204°
2026-05-05 19:46 35.74756 136.28717 25486 ft 448 kts 204°
2026-05-05 19:46 35.71958 136.27145 24890 ft 444 kts 204°
2026-05-05 19:46 35.69153 136.25571 24294 ft 440 kts 204°
2026-05-05 19:47 35.66379 136.24016 23705 ft 437 kts 204°
2026-05-05 19:47 35.63625 136.22472 23119 ft 433 kts 204°
2026-05-05 19:47 35.60891 136.20941 22538 ft 429 kts 204°
2026-05-05 19:47 35.58213 136.19443 21969 ft 425 kts 204°
2026-05-05 19:48 35.55522 136.17938 21397 ft 422 kts 204°
2026-05-05 19:48 35.52859 136.16450 20831 ft 418 kts 204°
2026-05-05 19:48 35.50223 136.14978 20271 ft 415 kts 204°
2026-05-05 19:48 35.47603 136.13517 19714 ft 411 kts 204°
2026-05-05 19:49 35.45007 136.12069 19163 ft 408 kts 204°
2026-05-05 19:49 35.43301 136.11118 18800 ft 406 kts 204°
2026-05-05 19:49 35.39877 136.09211 18072 ft 401 kts 204°
2026-05-05 19:49 35.37371 136.07816 17540 ft 398 kts 204°
2026-05-05 19:50 35.34861 136.06421 17007 ft 395 kts 204°
2026-05-05 19:50 35.32370 136.05036 16478 ft 392 kts 204°
2026-05-05 19:50 35.29894 136.03661 15952 ft 389 kts 204°
2026-05-05 19:50 35.27437 136.02297 15430 ft 386 kts 204°
2026-05-05 19:51 35.24992 136.00940 14910 ft 383 kts 204°
2026-05-05 19:51 35.22576 135.99601 14397 ft 380 kts 204°
2026-05-05 19:51 35.20173 135.98270 13886 ft 377 kts 204°
2026-05-05 19:51 35.17782 135.96946 13378 ft 375 kts 204°
2026-05-05 19:52 35.15446 135.95653 12881 ft 372 kts 204°
2026-05-05 19:52 35.13097 135.94354 12382 ft 369 kts 204°
2026-05-05 19:52 35.10754 135.93059 11884 ft 367 kts 204°
2026-05-05 19:52 35.08433 135.91776 11391 ft 364 kts 204°
2026-05-05 19:53 35.06151 135.90516 11104 ft 353 kts 204°
2026-05-05 19:53 35.03976 135.89316 10922 ft 340 kts 204°
2026-05-05 19:53 35.01862 135.88145 10783 ft 327 kts 205°
2026-05-05 19:53 34.99833 135.87003 10677 ft 313 kts 205°
2026-05-05 19:54 34.97896 135.85907 10600 ft 300 kts 205°
2026-05-05 19:54 34.96029 135.84851 10390 ft 293 kts 205°
2026-05-05 19:54 34.94183 135.83805 10053 ft 290 kts 205°
2026-05-05 19:54 34.92354 135.82770 9696 ft 289 kts 205°
2026-05-05 19:55 34.90533 135.81740 9342 ft 288 kts 205°
2026-05-05 19:55 34.88742 135.80725 8995 ft 286 kts 205°
2026-05-05 19:55 34.86938 135.79705 8646 ft 285 kts 205°
2026-05-05 19:55 34.85144 135.78689 8299 ft 283 kts 205°
2026-05-05 19:56 34.83361 135.77680 7954 ft 282 kts 205°
2026-05-05 19:56 34.81582 135.76673 7609 ft 281 kts 205°
2026-05-05 19:56 34.79815 135.75672 7267 ft 279 kts 205°
2026-05-05 19:56 34.78057 135.74678 6926 ft 278 kts 205°
2026-05-05 19:57 34.76328 135.73699 6590 ft 276 kts 205°
2026-05-05 19:57 34.75153 135.73034 6362 ft 276 kts 205°
2026-05-05 19:57 34.72854 135.71732 5915 ft 274 kts 205°
2026-05-05 19:57 34.71128 135.70755 5580 ft 272 kts 205°
2026-05-05 19:58 34.69417 135.69787 5379 ft 266 kts 205°
2026-05-05 19:58 34.67757 135.68851 5146 ft 261 kts 204°
2026-05-05 19:58 34.65998 135.68372 4789 ft 261 kts 179°
2026-05-05 19:58 34.64282 135.68890 4504 ft 257 kts 152°
2026-05-05 19:59 34.62867 135.70133 4409 ft 247 kts 140°
2026-05-05 19:59 34.61567 135.71509 4112 ft 247 kts 138°
2026-05-05 19:59 34.60124 135.72604 3831 ft 245 kts 162°
2026-05-05 19:59 34.58485 135.72897 3690 ft 237 kts 184°
2026-05-05 20:00 34.56959 135.72242 3545 ft 230 kts 214°
2026-05-05 20:00 34.55945 135.70804 3355 ft 225 kts 244°
2026-05-05 20:00 34.55681 135.68963 3143 ft 223 kts 276°
2026-05-05 20:00 34.56246 135.67239 3050 ft 224 kts 307°
2026-05-05 20:01 34.57437 135.66131 3007 ft 216 kts 338°
2026-05-05 20:01 34.58837 135.65626 3031 ft 203 kts 341°
2026-05-05 20:01 34.60090 135.64933 2979 ft 194 kts 330°
2026-05-05 20:01 34.61210 135.64039 2987 ft 190 kts 323°
2026-05-05 20:02 34.62224 135.63054 3007 ft 185 kts 320°
2026-05-05 20:02 34.63184 135.62023 2996 ft 184 kts 317°
2026-05-05 20:02 34.64116 135.60964 2994 ft 181 kts 316°
2026-05-05 20:02 34.65006 135.59922 2982 ft 175 kts 316°
2026-05-05 20:03 34.65874 135.58891 2968 ft 175 kts 315°
2026-05-05 20:03 34.66742 135.57851 2840 ft 175 kts 315°
2026-05-05 20:03 34.67595 135.56824 2660 ft 174 kts 315°
2026-05-05 20:03 34.68456 135.55787 2449 ft 174 kts 315°
2026-05-05 20:04 34.69314 135.54750 2225 ft 173 kts 315°
2026-05-05 20:04 34.69881 135.54065 2074 ft 173 kts 315°
2026-05-05 20:04 34.70735 135.53033 1846 ft 173 kts 315°
2026-05-05 20:04 34.71585 135.52006 1627 ft 170 kts 315°
2026-05-05 20:05 34.72401 135.51019 1423 ft 162 kts 315°
2026-05-05 20:05 34.73187 135.50069 1195 ft 158 kts 315°
2026-05-05 20:05 34.73966 135.49126 1000 ft 157 kts 315°
2026-05-05 20:05 34.74740 135.48189 765 ft 158 kts 315°
2026-05-05 20:06 34.75554 135.47211 593 ft 170 kts 315°
2026-05-05 20:06 34.76393 135.46212 346 ft 165 kts 315°
2026-05-05 20:06 34.77180 135.45254 138 ft 156 kts 314°
2026-05-05 20:06 34.77899 135.44377 64 ft 134 kts 314°
2026-05-05 20:07 34.78423 135.43729 54 ft 60 kts 316°
2026-05-05 20:07 34.78625 135.43545 54 ft 24 kts 336°
2026-05-05 20:07 34.78733 135.43489 54 ft 16 kts 336°
2026-05-05 20:07 34.78827 135.43442 54 ft 14 kts 339°
2026-05-05 20:08 34.78911 135.43433 54 ft 11 kts
2026-05-05 20:08 34.78991 135.43449 54 ft 13 kts 21°
2026-05-05 20:08 34.79059 135.43551 54 ft 19 kts 73°
2026-05-05 20:08 34.79101 135.43710 54 ft 20 kts 59°
2026-05-05 20:09 34.79154 135.43800 54 ft 11 kts 50°
2026-05-05 20:09 34.79175 135.43831 54 ft 0 kts 49°